{"data":{"norad_id":42758,"epoch":"2026-05-25T04:13:24.245184Z","epoch_age_seconds":50097,"freshness":"FRESH","line1":"1 42758U 17034A   26145.17597506  .00004387  00000+0  21936-3 0  9994","line2":"2 42758  43.0146 311.1548 0031637 356.7517   3.3122 15.18235821494164","mean_motion":15.18235821,"eccentricity":0.0031637,"inclination_deg":43.0146,"raan_deg":311.1548,"arg_perigee_deg":356.7517,"mean_anomaly_deg":3.3122,"bstar":0.00021936,"rev_number":49416,"period_min":94.8469256279,"perigee_km":489.37662822592,"apogee_km":532.96804411962,"semimajor_km":6889.3093361728,"source":"CELESTRAK","updated_at":"2026-05-25T13:38:24.645624Z"}}